Location: Campillo
(40.8621°N, 4.2488°W)
Time: 12:26:55
(UTC+00:00)

Meteor 2-6 Rocket - Pass Details

Date: 11 May 2021
Orbit: 807 x 913 km, 81.3° (Epoch: 13 June)

Event Time Altitude Azimuth Distance (km) Brightness Sun altitude
Exits shadow 21:54:26 27° 207° (SSW) 1,508 5.2 -22.8°
Maximum altitude 21:57:21 65° 281° (W) 896 4.4 -23.1°
Drops below altitude 10° 22:02:51 10° 4° (N) 2,445 7.3 -23.7°
Sets 22:05:19 0° 7° (N) 3,398 8.1 -24.0°
